sat.trackr.live / text

‹ back to catalog

GEESAT-6 07

NORAD 65719 · 2025-214H

PAYLOAD ACTIVE UNKNOWN

§ Identity

Operator
Country
PRC
Launch date
2025-09-24
Launch site
YSLA
Launch vehicle
Mass (kg)
RCS (m²)

External: N2YO · Heavens-Above · Gunter

§ Orbital elements

Epoch: 2026-09-20T14:15:08.422272Z

Period
97.06 min
Inclination
49.9799°
Eccentricity
0.0009768
Mean motion
14.83604238 rev/d
Perigee alt
611.1 km
Apogee alt
624.8 km
Semi-major
6,996.1 km
B*
1.5629e-4
RAAN
225.7313°
Arg perigee
243.5024°
Mean anomaly
116.4913°
Rev number
5,368

§ Raw data

GEESAT-6 071 65719U 25214H   26263.59384748  .00001076  00000+0  15629-3 0  99982 65719  49.9799 225.7313 0009768 243.5024 116.4913 14.83604238 53686

JSON: /api/v1/satellites/65719 · /tle

For live sub-satellite position, see the globe view (requires WebGL).

§ Visibility from observer

Set your observer location to see the next 7 days of passes ≥ 10°. The values pass through the URL so the page stays shareable.

No JS? Fill the form by hand. The geolocation button needs JavaScript.